Regional Weather Roundup
Issued by NWS Grand Forks, ND

Home | Current Version | Previous Version | Text Only | Print | Product List | Glossary Off
Versions: 1 2 3 4 5 6 7 8 9 10 11 12 13 14 15 16 17 18 19 20 21 22 23 24 25 26 27 28 29 30 31 32 33 34 35 36 37 38 39 40 41 42 43 44 45 46 47 48 49 50

000
ASUS43 KFGF 261031
RWRFGF
PRAIRIE TO PINES  WEATHER ROUNDUP
NATIONAL WEATHER SERVICE EASTERN NORTH DAKOTA/GRAND FORKS ND
400 AM CST FRI DEC 26 2014

 **SATELLITE DATA USED TO AUGMENT SKY COVER AT AUTOMATED STATIONS**
 *****  WEATHER ACROSS EASTERN NORTH DAKOTA  *****

CITY           SKY/WX    TMP DP  RH WIND       PRES   REMARKS
GRAND FORKS    CLOUDY    24  20  84 N9        30.08R WCI  14
GRAND FRKS AFB CLOUDY    24  22  92 N8        30.08R WCI  15
GRAND FRKS NWS   N/A     23 N/A N/A VRB6        N/A  WCI  16
DEVILS LAKE    CLOUDY    21  16  79 N7        30.06R WCI  13
FARGO          CLOUDY    24  19  81 N14       30.05R WCI  12
WAHPETON ARPT  CLOUDY    25  21  86 N17G23    30.03R WCI  11
$$

 ***** WEATHER ACROSS CENTRAL AND WESTERN NORTH DAKOTA  *****

CITY           SKY/WX    TMP DP  RH WIND       PRES   REMARKS
BISMARCK       CLOUDY    21  15  78 NW13      30.10R WCI   9
MINOT          MOCLDY     5   0  79 NW7       30.11R WCI  -7
JAMESTOWN      CLOUDY    22  19  89 N13       30.05R WCI  10
MINOT AFB      MOCLDY     3   1  92 N9        30.12R WCI -11
GARRISON         N/A      8   5  87 NW9       30.10R WCI  -5
WILLISTON      LGT SNOW  14   9  80 NW5       30.11S WCI   6
DICKINSON      CLOUDY    17  10  74 NW10      30.05R WCI   5
HETTINGER      CLOUDY    18  14  84 NW10      30.07R WCI   6
$$

 *****  OTHER AIRPORT OBSERVATIONS IN OUR AREA  *****

CITY           SKY/WX    TMP DP  RH WIND       PRES   REMARKS
WALHALLA       FLURRIES  23  23 100 NW7       30.08S WCI  15
GRAFTON AIRPOR NOT AVBL
VALLEY CITY AR CLOUDY    23  23 100 N8        30.05R WCI  14
CANDO          CLOUDY    18  16  93 N8        30.08R WCI   7
CAVALIER APRT  CLOUDY    23  18  80 N8        30.08S WCI  14
GWINNER        CLOUDY    27  27 100 N17       30.05R WCI  14
SHEYENNE NWR     N/A     24  20  86 N7        29.95  WCI  16
ROLLA          CLOUDY     9   9 100 NW14      30.06R WCI  -8
 ***** THE ABOVE OBSERVATIONS ARE NON NWS ARE NOT QUALITY
       CONTROLLED AND MAY MIS-REPORT RAIN FOR SNOW...
$$

  *****  WEATHER ACROSS NORTHERN MINNESOTA  *****

CITY           SKY/WX    TMP DP  RH WIND       PRES   REMARKS
FLAG ISLAND    CLOUDY    21  18  86 NW14      30.02R WCI   8
WARROAD        CLOUDY    19  18  93 NW3       30.04R
ROSEAU         CLOUDY    25  19  80 N7        30.04R WCI  17
HALLOCK        MOCLDY    21  19  93 N8        30.07S WCI  12
THF RVR FALLS  CLOUDY    25  19  80 NW8       30.04S WCI  16
BAUDETTE       LGT SNOW  23  19  85 N8        30.01S FOG     WCI  14
WASKISH        CLOUDY    21  19  93 CALM      30.01R
CROOKSTON      CLOUDY    23  21  93 N12       30.08R FOG     WCI  12
STEPHEN NDAWN    N/A     23  18  80 N8          N/A  WCI  14
GREENBUSH NDAW   N/A     23  21  93 NW9         N/A  WCI  13
$$
  *****  WEATHER ACROSS CENTRAL AND WEST MINNESOTA  *****

CITY           SKY/WX    TMP DP  RH WIND       PRES   REMARKS
FOSSTON        CLOUDY    21  19  93 N12       30.02R WCI   9
BEMIDJI        CLOUDY    24  20  87 N7        29.99R WCI  16
PARK RAPIDS    CLOUDY    26  21  81 N8        29.96R WCI  18
ELBOW LAKE     CLOUDY    26  23  89 N12       29.98R WCI  15
WADENA         CLOUDY    25  21  86 N9        29.96R WCI  15
DETROIT LAKES  CLOUDY    27  23  86 N5        30.00S WCI  21
MOORHEAD       CLOUDY    25  25 100 N16       30.05S WCI  12
FERGUS FALLS   CLOUDY    27  21  80 N8        30.03R WCI  18
MORRIS MN      MOCLDY    27  25  93 N12       29.97R WCI  16
STAPLES        CLOUDY    25  21  86 N7        29.96R WCI  17
$$
  *****  WEATHER ELSEWHERE ACROSS MINNESOTA  *****

CITY           SKY/WX    TMP DP  RH WIND       PRES   REMARKS
DULUTH         CLOUDY    29  22  75 N9        29.91R WCI  20
INTRNTL FALLS  CLOUDY    25  22  88 NW7       29.98R WCI  17
ELY            CLOUDY    27  21  80 CALM      29.94R
CLOQUET        CLOUDY    28  25  86 N7        29.93R WCI  21
WHEATON        CLOUDY    23  21  93 NW16G23   30.03R FOG     WCI  10
BRAINERD       CLOUDY    27  21  78 N9        29.95R WCI  18
HIBBING        CLOUDY    27  20  75 N5        29.95R WCI  22
ALEXANDRIA     CLOUDY    26  22  84 N14       29.95R WCI  14
SAINT CLOUD    CLOUDY    32  26  78 N7        29.93R
MINNEAPOLIS    CLOUDY    32  30  92 N10       29.88S WCI  24
$$

  *****  WEATHER ACROSS SOUTH DAKOTA  *****

CITY           SKY/WX    TMP DP  RH WIND       PRES   REMARKS
SIOUX FALLS    CLOUDY    28  25  88 N14       29.94R WCI  17
BROOKINGS      NOT AVBL
WATERTOWN      CLOUDY    24  21  88 N13       29.95R WCI  12
HURON          LGT SNOW  25  23  92 N14       30.02R FOG     WCI  13
SISSETON         N/A     25  23  92 N20       30.00R WCI  11
ABERDEEN       FRZ RAIN  26  23  88 N15       30.04S WCI  14
MITCHELL       FLURRIES  27  24  89 NW13      30.01R WCI  16
PIERRE         CLOUDY    25  21  85 N15       30.04R WCI  13
MOBRIDGE       CLOUDY    25  21  85 N12       30.03S WCI  14
RAPID CITY     CLOUDY    20  16  84 N12       30.03R WCI   8
$$

  *****  SOME WEATHER IN NEARBY STATES *****

CITY           SKY/WX    TMP DP  RH WIND       PRES   REMARKS
GLASGOW MT     CLOUDY    18  13  80 E10       30.05F WCI   6
GREAT FALLS MT CLOUDY    22  16  78 SW10      29.95R WCI  11
CHEYENNE WY    FLURRIES  12   9  87 N9        29.84R WCI   0
SCOTTSBLUFF NE CLOUDY    17  14  88 N7        29.96R WCI   8
OMAHA NE       CLOUDY    33  31  92 N15       29.86R WCI  23
DES MOINES IA  CLEAR     38  30  73 S9        29.82R
DAVENPORT IA   CLOUDY    41  32  70 S20G26    29.91R
CHICAGO IL     FAIR      37  32  82 S10       29.97F
EAU CLAIRE WI  MOCLDY    30  27  88 NE6       29.87S WCI  24
LA CROSSE WI   CLEAR     28  25  88 CALM      29.87R
$$

  *****  SOME NATIONAL WEATHER *****

CITY           SKY/WX    TMP DP  RH WIND       PRES   REMARKS
LA GUARDIA NY  CLEAR     42  29  59 W9        30.16R
RALEIGH NC     PTCLDY    31  28  89 CALM      30.28S
ATLANTA GA     MOCLDY    36  33  89 CALM      30.25R
NEW ORLEANS LA MOCLDY    45  41  86 E5        30.15F
OKLAHOMA CITY  CLOUDY    48  36  63 S13       29.85F
ALBUQUERQUE NM LGT SNOW  32  31  96 SE12      29.75S FOG     WCI  23
SALT LAKE CITY MOCLDY    25  22  88 W3        29.86R
LOS ANGELES CA CLEAR     51  20  29 NE5       29.95R
BOISE ID       CLOUDY    27  22  81 W6        30.08R WCI  20
SEATTLE WA     CLOUDY    39  36  89 SE3       30.31R
$$

*** WEATHER ACROSS MANITOBA...SASKATCHEWAN AND ONTARIO ***
                ***ONTARIO***

CITY           SKY/WX    TMP DP  RH WIND       PRES   REMARKS
GERALDTON      CLOUDY    28  25  86 SW5       29.87R WCI  23
THUNDER BAY    CLOUDY    28  27  93 SW2       29.95R
SIOUX LOOKOUT  FLURRIES  25  23  93 NW8       29.93  WCI  16
TORONTO        PTCLDY    36  30  80 W13       30.15R
BIG TROUT LK   FLURRIES  18  16  93 NW6       29.89R WCI   9
PICKLE LAKE    NOT AVBL
DRYDEN         CLOUDY    23  21  93 W8        29.95R WCI  14
KENORA         FLURRIES  19  18  93 NW12      29.98S WCI   7
$$
                *** MANITOBA***

CITY           SKY/WX    TMP DP  RH WIND       PRES   REMARKS
BRANDON        PTCLDY    -4  -9  77 W18       30.12R WCI -26
DAUPHIN        CLOUDY     1  -4  78 W12       30.17R WCI -15
ISLAND LAKE    LGT SNOW   7   1  78 NW10      30.02R DRFTSNOWWCI  -8
PILOT MOUND      N/A     14  10  85 NW8         N/A  WCI   3
THE PAS        CLEAR    -11 -15  84 W7        30.18R WCI -26
THOMPSON       CLEAR    -18 -24  76 W3        30.08S
WINNIPEG       FLURRIES  14  10  85 N10G17    30.10  WCI   1
CHURCHILL      LGT SNOW  -6 -11  77 W13G21    30.00R BLWGSNOWWCI -25
GILLAM         FLURRIES  -2  -8  78 W15       30.01R WCI -22
$$
                ***SASKATCHEWAN***

CITY           SKY/WX    TMP DP  RH WIND       PRES   REMARKS
ESTEVAN        FLURRIES   1  -2  85 NW10      30.11S WCI -14
KINDERSLEY     NOT AVBL
LLOYDMINSTER   CLOUDY     7   5  92 S5        30.06S WCI  -2
PRINCE ALBERT  CLEAR    -20 -26  76 W2        30.18
REGINA         CLOUDY     0  -2  92 NW7       30.13S WCI -13
YORKTON        CLOUDY    -8 -11  84 NW7       30.13R WCI -22
N. BATTLEFORD  CLOUDY     5   1  85 NE3       30.14S
LA RONGE       CLEAR    -20 -26  76 SW3       30.16S
SASKATOON      CLOUDY     0  -4  85 E6        30.16S WCI -12
SWIFT CURRENT  FLURRIES   7   5  92 SE8       30.01R WCI  -6
$$
NOTE: THESE ARE AUTOMATED STATIONS WITH LIMITED QUALITY CONTROL
      "FAIR" INDICATES FEW OR NO CLOUDS BELOW 12,000 FEET WITH NO
      SIGNIFICANT WEATHER AND/OR OBSTRUCTIONS TO VISIBILITY.
      SKY/WX - SKY CONDITION AND SIGNIFICANT WEATHER.
      TMP - AIR TEMPERATURE.    DP   - DEWPOINT TEMPERATURE.
      RH  - RELATIVE HUMIDITY.  PRES - PRESSURE.
      HX  - HEAT INDEX.         WCI  - WIND CHILL INDEX.
$


USA.gov is the U.S. government's official web portal to all federal, state and local government web resources and services.